Ukiah, CA

7:55 AM PDT on May 27, 2017 (GMT -0700)
Ukiah Municipal

Weather History for KUKI - July, 2012

Change the Weather History Date:

Wednesday, July 11, 2012

  Actual Average Record
Temperature  
Mean Temperature 82 °F 74 °F  
Max Temperature 104 °F 92 °F 110 °F (1913)
Min Temperature 59 °F 56 °F 41 °F (1960)
Degree Days  
Heating Degree Days 0 0  
Month to date heating degree days 0 0  
Since 1 June heating degree days 63 32  
Since 1 July heating degree days 0 0  
Cooling Degree Days 17 9  
Month to date cooling degree days 101 88  
Year to date cooling degree days 279 252  
Since 1 June cooling degree days 217 200  
Growing Degree Days 31 (Base 50)    
Moisture  
Dew Point 52 °F    
Average Humidity 46    
Maximum Humidity 78    
Minimum Humidity 14    
Precipitation  
Precipitation 0.00 in 0.00 in 0.01 in (2007)
Month to date precipitation 0.00 0.04  
Year to date precipitation 18.92 23.42  
Since 1 July precipitation 0.00  
Snow  
Snow 0.00 in - - ()
Month to date snowfall 0.0  
Since 1 June snowfall 0.0  
Since 1 July snowfall 0.0  
Snow Depth 0.00 in    
Sea Level Pressure  
Sea Level Pressure 29.82 in    
Wind  
Wind Speed 2 mph (WNW)    
Max Wind Speed 14 mph    
Max Gust Speed 20 mph    
Visibility 10 miles    
Events      
T = Trace of Precipitation, MM = Missing Value Source: NWS Daily Summary

Daily Weather History Graph

Daily Weather History Graph

Search for Another Location

Airport or City:

Trip Planner

Search our weather history database for the weather conditions in past years. The results will help you decide how hot, cold, wet, or windy it might be!

Date:

Astronomy

Jul. 11, 2012 Rise Set
Actual Time 5:56 AM PDT 8:39 PM PDT
Civil Twilight 5:25 AM PDT 9:11 PM PDT
Nautical Twilight 4:45 AM PDT 9:50 PM PDT
Astronomical Twilight 4:01 AM PDT 10:35 PM PDT
Moon 12:31 AM PDT (7/11) 2:21 PM PDT (7/11)
Length of Visible Light 15h 46m
Length of Day
14h 43m
Last Quarter, 43% of the Moon is Illuminated
Jul 11
Last Quarter
Jul 18
New
Jul 26
First Quarter
Aug 1
Full
Aug 9
Last Quarter

Hourly Weather History & Observations

Time (PDT) Temp. Heat Index Dew Point Humidity Pressure Visibility Wind Dir Wind Speed Gust Speed Precip Events Conditions
12:56 AM 69.1 °F - 54.0 °F 58% 29.84 in 9.0 mi Calm Calm - N/A   Clear
1:56 AM 64.9 °F - 54.0 °F 68% 29.84 in 10.0 mi Calm Calm - N/A   Clear
2:56 AM 63.0 °F - 54.0 °F 72% 29.84 in 10.0 mi Calm Calm - N/A   Clear
3:56 AM 62.1 °F - 53.1 °F 72% 29.83 in 10.0 mi Calm Calm - N/A   Clear
4:56 AM 61.0 °F - 54.0 °F 78% 29.83 in 10.0 mi Calm Calm - N/A   Clear
5:56 AM 60.1 °F - 53.1 °F 78% 29.85 in 10.0 mi Calm Calm - N/A   Clear
6:56 AM 61.0 °F - 54.0 °F 78% 29.86 in 10.0 mi Calm Calm - N/A   Clear
7:56 AM 64.0 °F - 55.0 °F 73% 29.87 in 10.0 mi Calm Calm - N/A   Scattered Clouds
8:56 AM 71.1 °F - 55.9 °F 59% 29.88 in 10.0 mi Calm Calm - N/A   Clear
9:56 AM 77.0 °F - 54.0 °F 45% 29.86 in 10.0 mi Calm Calm - N/A   Clear
10:56 AM 82.9 °F 82.1 °F 55.9 °F 39% 29.86 in 10.0 mi Variable 4.6 mph - N/A   Clear
11:56 AM 90.0 °F 87.9 °F 55.0 °F 30% 29.84 in 10.0 mi North 4.6 mph - N/A   Clear
12:56 PM 97.0 °F 94.6 °F 53.1 °F 23% 29.83 in 9.0 mi Calm Calm - N/A   Clear
1:56 PM 99.0 °F 96.5 °F 53.1 °F 21% 29.81 in 10.0 mi Variable 3.5 mph - N/A   Clear
2:56 PM 102.0 °F - 52.0 °F 19% 29.79 in 10.0 mi Calm Calm - N/A   Clear
3:56 PM 100.9 °F 99.1 °F 54.0 °F 21% 29.78 in 10.0 mi Variable 4.6 mph - N/A   Clear
4:56 PM 102.2 °F - 46.4 °F 15% 29.79 in 10.0 mi WNW 9.2 mph - N/A   Clear
5:56 PM 100.9 °F - 43.0 °F 14% 29.76 in 10.0 mi West 8.1 mph - N/A   Clear
6:56 PM 95.0 °F 92.5 °F 53.1 °F 24% 29.77 in 10.0 mi SE 3.5 mph - N/A   Clear
7:56 PM 91.0 °F - 48.9 °F 23% 29.78 in 10.0 mi WNW 3.5 mph - N/A   Clear
8:56 PM 86.0 °F - 50.0 °F 29% 29.82 in 10.0 mi Calm Calm - N/A   Clear
9:56 PM 81.0 °F - 48.9 °F 33% 29.81 in 10.0 mi Calm Calm - N/A   Clear
10:56 PM 75.9 °F - 52.0 °F 43% 29.81 in 10.0 mi Calm Calm - N/A   Clear
11:56 PM 73.0 °F - 52.0 °F 48% 29.81 in 10.0 mi Calm Calm - N/A   Clear